�������l�o���
Date,Time,MP-1(��Sv/h),MP-2(��Sv/h),MP-3(��Sv/h),MP-4(��Sv/h),MP-5(��Sv/h),MP-6(��Sv/h),MP-7(��Sv/h),MP-8(��Sv/h),����,����(m/s),���J
2023/01/29,00:00,0.551,0.795,0.503,1.029,0.707,0.318,0.582,0.552,��,4.2,��
2023/01/29,00:10,0.552,0.793,0.501,1.029,0.707,0.319,0.582,0.553,��,5.6,��
2023/01/29,00:20,0.551,0.791,0.502,1.030,0.707,0.318,0.580,0.553,��,5.8,��
2023/01/29,00:30,0.550,0.793,0.501,1.029,0.706,0.317,0.581,0.553,��,4.7,��
2023/01/29,00:40,0.550,0.792,0.502,1.033,0.707,0.318,0.580,0.553,��,3.6,��
2023/01/29,00:50,0.551,0.793,0.502,1.029,0.706,0.318,0.581,0.553,���k��,4.9,��
2023/01/29,01:00,0.551,0.792,0.502,1.031,0.705,0.319,0.581,0.553,���k��,3.8,��
2023/01/29,01:10,0.551,0.793,0.504,1.030,0.705,0.319,0.580,0.553,�k��,4.1,��
2023/01/29,01:20,0.551,0.793,0.502,1.031,0.707,0.319,0.583,0.553,�k��,4.1,��
2023/01/29,01:30,0.549,0.792,0.503,1.031,0.705,0.317,0.582,0.552,�k��,6.6,��
2023/01/29,01:40,0.548,0.794,0.500,1.031,0.704,0.318,0.581,0.554,�k��,7.7,��
2023/01/29,01:50,0.549,0.793,0.502,1.030,0.706,0.318,0.582,0.553,�k��,7.4,��
2023/01/29,02:00,0.551,0.791,0.501,1.032,0.706,0.319,0.581,0.553,�k��,6.3,��
2023/01/29,02:10,0.550,0.792,0.501,1.030,0.705,0.318,0.580,0.555,�k��,5.5,��
2023/01/29,02:20,0.548,0.792,0.500,1.030,0.707,0.318,0.580,0.553,�k��,4.4,��
2023/01/29,02:30,0.550,0.794,0.502,1.030,0.706,0.317,0.581,0.553,�k��,5.6,��
2023/01/29,02:40,0.549,0.792,0.503,1.031,0.706,0.318,0.582,0.553,�k��,7.4,��
2023/01/29,02:50,0.550,0.791,0.503,1.031,0.705,0.317,0.580,0.552,�k��,6.9,�L
2023/01/29,03:00,0.551,0.792,0.502,1.030,0.706,0.318,0.581,0.552,�k��,5.2,�L
2023/01/29,03:10,0.551,0.792,0.503,1.030,0.705,0.318,0.581,0.552,�k��,5.3,�L
2023/01/29,03:20,0.549,0.792,0.503,1.032,0.705,0.318,0.580,0.554,�k��,4.4,�L
2023/01/29,03:30,0.550,0.792,0.503,1.031,0.706,0.319,0.581,0.554,�k��,3.3,�L
2023/01/29,03:40,0.550,0.793,0.502,1.031,0.707,0.320,0.581,0.551,�k��,3.6,��
2023/01/29,03:50,0.549,0.793,0.503,1.031,0.709,0.318,0.580,0.551,�k��,4.2,��
2023/01/29,04:00,0.550,0.792,0.503,1.032,0.707,0.319,0.579,0.552,�k��,3.2,��
2023/01/29,04:10,0.549,0.790,0.502,1.030,0.707,0.319,0.579,0.554,�k��,2.2,��
2023/01/29,04:20,0.548,0.792,0.503,1.030,0.706,0.319,0.580,0.554,�k��,2.0,��
2023/01/29,04:30,0.552,0.789,0.502,1.029,0.707,0.319,0.579,0.552,���k��,3.0,��
2023/01/29,04:40,0.551,0.792,0.501,1.031,0.705,0.319,0.580,0.555,��,2.3,��
2023/01/29,04:50,0.551,0.791,0.501,1.030,0.706,0.318,0.579,0.553,��,2.0,��
2023/01/29,05:00,0.549,0.792,0.502,1.031,0.705,0.320,0.580,0.553,���k��,1.8,��
2023/01/29,05:10,0.551,0.793,0.501,1.030,0.706,0.319,0.580,0.553,�k��,2.2,��
2023/01/29,05:20,0.548,0.791,0.501,1.031,0.703,0.319,0.579,0.553,���k��,3.1,��
2023/01/29,05:30,0.551,0.791,0.502,1.029,0.706,0.318,0.580,0.552,���k��,3.1,��
2023/01/29,05:40,0.551,0.792,0.503,1.029,0.705,0.318,0.580,0.553,�k��,2.5,��
2023/01/29,05:50,0.549,0.793,0.500,1.031,0.705,0.319,0.579,0.551,�k��,3.1,��
2023/01/29,06:00,0.549,0.792,0.500,1.029,0.705,0.318,0.579,0.552,�k��,3.8,��
2023/01/29,06:10,0.549,0.791,0.501,1.031,0.704,0.319,0.578,0.554,���k��,2.9,��
2023/01/29,06:20,0.551,0.793,0.502,1.029,0.705,0.318,0.581,0.552,��,3.1,��
2023/01/29,06:30,0.549,0.791,0.501,1.029,0.705,0.319,0.579,0.552,��,2.0,��
2023/01/29,06:40,0.550,0.792,0.502,1.029,0.704,0.318,0.579,0.552,��,1.3,��
2023/01/29,06:50,0.549,0.792,0.501,1.028,0.704,0.318,0.580,0.552,��,1.0,��
2023/01/29,07:00,0.550,0.791,0.500,1.028,0.705,0.319,0.580,0.552,��,1.2,��
2023/01/29,07:10,0.547,0.792,0.500,1.030,0.703,0.318,0.580,0.553,��,1.5,��
2023/01/29,07:20,0.548,0.793,0.501,1.030,0.704,0.318,0.580,0.550,���쐼,1.8,��
2023/01/29,07:30,0.549,0.792,0.501,1.030,0.706,0.318,0.579,0.553,���쐼,1.9,��
2023/01/29,07:40,0.550,0.790,0.502,1.029,0.704,0.317,0.579,0.553,���쐼,1.6,��
2023/01/29,07:50,0.551,0.791,0.502,1.030,0.705,0.319,0.578,0.551,�쐼,2.3,��
2023/01/29,08:00,0.550,0.792,0.501,1.031,0.705,0.319,0.579,0.552,��쐼,2.2,��
2023/01/29,08:10,0.549,0.793,0.502,1.031,0.705,0.318,0.580,0.551,�쐼,2.1,��
2023/01/29,08:20,0.550,0.792,0.502,1.031,0.704,0.319,0.580,0.554,���쐼,2.2,��
2023/01/29,08:30,0.549,0.793,0.502,1.031,0.705,0.318,0.579,0.553,��,3.0,��
2023/01/29,08:40,0.550,0.793,0.502,1.031,0.704,0.319,0.580,0.551,��,2.3,��
2023/01/29,08:50,0.552,0.791,0.502,1.029,0.703,0.319,0.579,0.554,��,2.4,��
2023/01/29,09:00,0.551,0.791,0.500,1.029,0.705,0.318,0.580,0.552,��,2.6,��
2023/01/29,09:10,0.551,0.794,0.498,1.031,0.705,0.319,0.580,0.552,���쐼,2.5,��
2023/01/29,09:20,0.551,0.793,0.497,1.029,0.705,0.318,0.582,0.552,�쐼,2.5,��
2023/01/29,09:30,0.553,0.794,0.494,1.029,0.704,0.320,0.580,0.552,�쐼,1.2,��
2023/01/29,09:40,0.550,0.794,0.496,1.029,0.707,0.319,0.581,0.553,���쐼,2.0,��
2023/01/29,09:50,0.552,0.795,0.494,1.030,0.705,0.320,0.581,0.552,��,1.0,��
2023/01/29,10:00,0.553,0.792,0.495,1.027,0.704,0.318,0.582,0.552,���쐼,1.6,��
2023/01/29,10:10,0.552,0.794,0.498,1.031,0.707,0.318,0.580,0.554,���쓌,1.8,��
2023/01/29,10:20,0.552,0.792,0.501,1.031,0.707,0.319,0.580,0.552,�쓌,1.5,��
2023/01/29,10:30,0.553,0.793,0.500,1.031,0.705,0.321,0.580,0.553,�쓌,2.2,��
2023/01/29,10:40,0.552,0.793,0.501,1.031,0.707,0.319,0.579,0.553,�쓌,3.0,��
2023/01/29,10:50,0.552,0.793,0.498,1.030,0.706,0.319,0.579,0.554,�쓌,3.3,��
2023/01/29,11:00,0.552,0.793,0.497,1.029,0.708,0.318,0.579,0.553,���쓌,3.4,��
2023/01/29,11:10,0.553,0.795,0.500,1.032,0.707,0.319,0.579,0.552,���쓌,3.5,��
2023/01/29,11:20,0.553,0.795,0.502,1.031,0.707,0.319,0.579,0.553,�쓌,3.2,��
2023/01/29,11:30,0.555,0.794,0.503,1.030,0.707,0.319,0.578,0.555,-,CALM,��
2023/01/29,11:40,0.553,0.796,0.504,1.030,0.709,0.320,0.578,0.553,��쐼,2.0,��
2023/01/29,11:50,0.555,0.797,0.504,1.034,0.709,0.319,0.579,0.555,��쓌,0.9,��
2023/01/29,12:00,0.554,0.797,0.507,1.030,0.708,0.320,0.579,0.553,��,4.2,��
2023/01/29,12:10,0.555,0.795,0.506,1.030,0.709,0.320,0.579,0.552,��,6.6,��
2023/01/29,12:20,0.555,0.798,0.505,1.033,0.708,0.319,0.580,0.554,�k,0.9,��
2023/01/29,12:30,0.557,0.799,0.505,1.032,0.711,0.321,0.581,0.555,�k��,3.8,��
2023/01/29,12:40,0.555,0.798,0.506,1.031,0.710,0.321,0.581,0.554,�k�k��,4.9,��
2023/01/29,12:50,0.556,0.796,0.508,1.031,0.710,0.320,0.580,0.554,�k�k��,4.7,��
2023/01/29,13:00,0.556,0.798,0.507,1.034,0.711,0.319,0.581,0.554,�k,4.1,�L
2023/01/29,13:10,0.557,0.798,0.507,1.034,0.709,0.319,0.580,0.552,�k�k��,3.4,��
2023/01/29,13:20,0.556,0.801,0.506,1.033,0.711,0.319,0.580,0.552,�k,3.6,��
2023/01/29,13:30,0.554,0.800,0.506,1.032,0.710,0.319,0.581,0.554,�k�k��,3.0,��
2023/01/29,13:40,0.556,0.799,0.505,1.032,0.712,0.319,0.581,0.553,�k��,3.3,��
2023/01/29,13:50,0.557,0.802,0.507,1.034,0.712,0.320,0.581,0.553,�k�k��,2.1,��
2023/01/29,14:00,0.553,0.801,0.509,1.034,0.710,0.319,0.580,0.554,���k��,1.5,��
2023/01/29,14:10,0.550,0.802,0.507,1.032,0.711,0.320,0.580,0.555,�k,3.2,��
2023/01/29,14:20,0.550,0.802,0.509,1.032,0.711,0.319,0.582,0.554,�k�k��,3.8,��
2023/01/29,14:30,0.551,0.799,0.507,1.036,0.710,0.320,0.582,0.555,�k,2.8,��
2023/01/29,14:40,0.552,0.803,0.507,1.036,0.709,0.320,0.582,0.554,�k,2.2,��
2023/01/29,14:50,0.557,0.794,0.506,1.031,0.711,0.320,0.582,0.554,�k�k��,2.2,��
2023/01/29,15:00,0.557,0.794,0.509,1.034,0.712,0.321,0.583,0.556,�k,2.8,��
2023/01/29,15:10,0.558,0.795,0.507,1.036,0.711,0.320,0.583,0.554,�k,2.7,��
2023/01/29,15:20,0.557,0.791,0.507,1.033,0.711,0.321,0.583,0.555,�k�k��,1.6,��
2023/01/29,15:30,0.557,0.794,0.507,1.034,0.712,0.319,0.582,0.554,�k,2.3,��
2023/01/29,15:40,0.557,0.793,0.507,1.035,0.710,0.319,0.584,0.555,�k,3.4,��
2023/01/29,15:50,0.558,0.803,0.508,1.036,0.712,0.320,0.583,0.554,�k,3.6,��
2023/01/29,16:00,0.557,0.803,0.508,1.035,0.711,0.320,0.582,0.555,�k�k��,3.4,��
2023/01/29,16:10,0.557,0.803,0.508,1.035,0.712,0.319,0.582,0.554,�k,2.7,��
2023/01/29,16:20,0.556,0.802,0.507,1.033,0.711,0.320,0.580,0.553,�k�k��,3.0,��
2023/01/29,16:30,0.558,0.800,0.506,1.033,0.712,0.319,0.582,0.554,�k�k��,4.1,��
2023/01/29,16:40,0.557,0.799,0.508,1.034,0.713,0.320,0.582,0.554,�k�k��,5.8,��
2023/01/29,16:50,0.560,0.802,0.507,1.034,0.713,0.320,0.583,0.554,�k�k��,6.3,��
2023/01/29,17:00,0.556,0.803,0.507,1.034,0.712,0.319,0.583,0.554,�k�k��,7.2,��
2023/01/29,17:10,0.556,0.805,0.507,1.035,0.711,0.320,0.582,0.553,�k�k��,7.1,��
2023/01/29,17:20,0.557,0.801,0.508,1.034,0.711,0.318,0.582,0.554,�k�k��,7.7,��
2023/01/29,17:30,0.556,0.804,0.507,1.035,0.711,0.317,0.582,0.551,�k�k��,6.9,��
2023/01/29,17:40,0.557,0.802,0.506,1.032,0.710,0.318,0.581,0.553,�k�k��,3.9,��
2023/01/29,17:50,0.555,0.803,0.507,1.036,0.712,0.319,0.581,0.553,�k�k��,4.4,��
2023/01/29,18:00,0.557,0.803,0.508,1.033,0.713,0.320,0.583,0.555,�k�k��,5.0,��
2023/01/29,18:10,0.556,0.802,0.507,1.033,0.710,0.319,0.583,0.554,�k�k��,4.7,��
2023/01/29,18:20,0.555,0.802,0.507,1.033,0.711,0.320,0.582,0.553,�k�k��,5.3,��
2023/01/29,18:30,0.558,0.803,0.507,1.033,0.712,0.319,0.581,0.554,�k��,7.7,��
2023/01/29,18:40,0.557,0.800,0.508,1.033,0.710,0.320,0.581,0.554,�k��,7.7,��
2023/01/29,18:50,0.554,0.804,0.506,1.034,0.712,0.319,0.582,0.554,�k�k��,6.3,��
2023/01/29,19:00,0.556,0.801,0.508,1.033,0.710,0.318,0.581,0.553,�k��,6.1,��
2023/01/29,19:10,0.556,0.801,0.508,1.036,0.711,0.319,0.582,0.555,�k�k��,5.2,��
2023/01/29,19:20,0.554,0.802,0.508,1.036,0.711,0.317,0.582,0.554,�k�k��,4.9,��
2023/01/29,19:30,0.557,0.801,0.507,1.036,0.711,0.317,0.582,0.553,�k,4.4,��
2023/01/29,19:40,0.555,0.802,0.507,1.036,0.711,0.319,0.582,0.553,�k,4.9,��
2023/01/29,19:50,0.557,0.801,0.508,1.035,0.712,0.319,0.581,0.553,�k�k��,5.8,��
2023/01/29,20:00,0.557,0.803,0.507,1.034,0.712,0.320,0.581,0.554,�k�k��,5.5,��
2023/01/29,20:10,0.555,0.801,0.507,1.034,0.709,0.319,0.581,0.554,�k�k��,5.3,��
2023/01/29,20:20,0.555,0.802,0.507,1.035,0.710,0.319,0.584,0.553,�k�k��,6.1,��
2023/01/29,20:30,0.556,0.801,0.507,1.036,0.712,0.320,0.582,0.553,�k�k��,5.8,��
2023/01/29,20:40,0.556,0.803,0.507,1.035,0.713,0.319,0.582,0.554,�k�k��,5.2,��
2023/01/29,20:50,0.556,0.803,0.505,1.038,0.711,0.320,0.581,0.556,�k�k��,4.9,��
2023/01/29,21:00,0.555,0.803,0.508,1.034,0.711,0.320,0.583,0.555,�k�k��,5.5,��
2023/01/29,21:10,0.556,0.802,0.507,1.035,0.711,0.320,0.580,0.554,�k�k��,4.6,��
2023/01/29,21:20,0.555,0.802,0.507,1.036,0.712,0.319,0.584,0.553,�k�k��,4.1,��
2023/01/29,21:30,0.555,0.801,0.506,1.034,0.710,0.320,0.581,0.554,�k�k��,4.2,��
2023/01/29,21:40,0.555,0.802,0.507,1.036,0.711,0.319,0.583,0.552,�k�k��,4.1,��
2023/01/29,21:50,0.556,0.802,0.507,1.036,0.713,0.320,0.582,0.553,�k�k��,3.8,��
2023/01/29,22:00,0.555,0.803,0.509,1.035,0.711,0.321,0.580,0.554,�k�k��,4.1,��
2023/01/29,22:10,0.556,0.803,0.508,1.036,0.711,0.320,0.581,0.553,�k�k��,4.1,��
2023/01/29,22:20,0.557,0.802,0.507,1.034,0.712,0.319,0.581,0.552,�k��,3.8,��
2023/01/29,22:30,0.555,0.803,0.507,1.036,0.713,0.319,0.581,0.554,�k��,3.9,��
2023/01/29,22:40,0.556,0.801,0.508,1.036,0.712,0.319,0.582,0.553,�k��,3.8,��
2023/01/29,22:50,0.556,0.801,0.507,1.038,0.712,0.321,0.580,0.553,�k��,3.5,��
2023/01/29,23:00,0.558,0.802,0.506,1.037,0.712,0.319,0.583,0.554,�k��,4.4,��
2023/01/29,23:10,0.556,0.802,0.506,1.036,0.710,0.319,0.580,0.554,�k�k��,3.8,��
2023/01/29,23:20,0.556,0.803,0.508,1.034,0.711,0.320,0.582,0.554,�k�k��,3.3,��
2023/01/29,23:30,0.558,0.801,0.507,1.037,0.712,0.320,0.582,0.554,�k�k��,3.0,��
2023/01/29,23:40,0.556,0.800,0.507,1.036,0.712,0.319,0.581,0.554,�k��,3.6,��
2023/01/29,23:50,0.557,0.801,0.508,1.036,0.711,0.320,0.581,0.554,�k��,3.9,��
